Location: Newark
(57.7279°N, 5.6916°W)
Time: 16:07:09
(UTC+00:00)

N. Korean satellite - Pass Details

Date: 14 December 2019
Orbit: 454 x 507 km, 97.2° (Epoch: 28 January)

Event Time Altitude Azimuth Distance (km) Brightness Sun altitude
Rises 06:22:32 0° 16° (NNE) 2,559 10.3 -18.8°
Reaches altitude 10° 06:24:38 10° 19° (NNE) 1,664 9.3 -18.5°
Maximum altitude 06:28:12 67° 103° (ESE) 518 6.8 -18.0°
Drops below altitude 10° 06:31:40 10° 186° (S) 1,622 9.3 -17.6°
Sets 06:33:41 0° 190° (S) 2,486 10.3 -17.3°
